THORAD DELTA 1 DEB, 9730

Orbit data source: Space-Track

THORAD DELTA 1 DEB, 9730 is space debris in SSO originally from a launch on Fri, 15 Nov 1974 UTC launched from the Air Force Western Test Range (AFWTR). Debris objects in space refer to the collection of defunct objects orbiting the Earth. Examples of debris include non-operational satellites, rocket bodies, and fragments generated from explosions, collisions, or faulty payload assembly.

Loading next visibility...
Identifier
9730, 1974-089DZ
Orbit
SSO
Country
Flag of USUS
Related business
Manufacturer
Unknown
Mission
Spacecraft
Bus & Motor
Unknown
Mass
Unknown
Launch date (UTC)
1974-11-15 (51 years ago)
Launch vehicle
Unknown
Launch site
Air Force Western Test Range (AFWTR)
Object type
Payload
Rocket body
Debris
Shape & HBR
Unknown shape, 0.1 m
Radar Cross Section
Small (<0.1 m²)

Expand to show TLE details & history
Last TLE update: 2 days ago

TLE from 2 days ago
0 THORAD DELTA 1 DEB
1 09730U 74089DZ  25287.17699104  .00003381  00000-0  69997-2 0  9995
2 09730 101.7522 180.3430 0075910 278.2500 244.1659 13.32199731410346
Epoch: 2025-10-14T04:14Z
TLE epoch observation values (Epoch: 2025-10-14T04:14:52.025Z)
Latitude
17.96005°
Longitude
-82.49587°
Altitude
1,165.829 km
Speed
7.26 km/s
True Right ascension
00h 16m 45s
True Declination
17° 51' 54"
Sunlit
Object was in full shadow at epoch
Visualization orbit readout
Latitude
Unknown
Longitude
Unknown
Altitude
Unknown
Speed
Unknown
Apparent Right ascension
Unknown
Apparent Declination
Unknown
Sunlit
N/A
Visualization observer readout
Local Sidereal Time
12:59:12
Azimuth
Unknown
Elevation
Unknown
Doppler factor
Unknown
Orbital elements
Apogee altitude
1,192.957 km
Perigee altitude
1,078.878 km
Semi-major axis
7,514.055 km
Eccentricity
0.00759
Inclination
101.7522°
RAAN
180.343°
Arg. of periapsis
278.25°
True anomaly
243.38622°
Mean anomaly
244.1659°
Eccentric anomaly
243.77573°
Mean motion
3.3322 °/min
Orbital period
108.04 mins
BSTAR
0.0069997
Loading maneuver chart data...
Computing Atmospheric mass density...

Documentation

Showing up to 5 results
|